Retour au catalogue

COSMOS 2251 DEB

ActifLEO
NORAD 35711·DEBRIS·🇷🇺 Russia

Lancé Jun 16, 1993 depuis Plesetsk Cosmodrome

Loading…

Prochains Passages (prochaines 24 heures)

TLE

FraisSource: Space-Track

Époque: Sep 14, 2026, 17:00 UTC

1 35711U 93036AQG 26257.70890414  .00000802  00000-0  15010-3 0  9993
2 35711  74.0451  50.5903 0082927  81.1011 279.9534 14.64430406918102

Suivez COSMOS 2251 DEB en temps réel avec AllMySat

Download on the App Store